Regional Weather Roundup
Issued by NWS

Home | Current Version | Previous Version | Graphics & Text | Print | Product List | Glossary On
Versions: 1 2 3 4 5 6 7 8 9 10 11 12 13 14 15 16 17 18 19 20 21 22 23 24 25 26 27 28 29 30 31 32 33 34 35 36 37 38 39 40 41 42 43 44 45 46 47 48 49 50
000
ASUS43 KFSD 260902
RWRSD

WEATHER ROUNDUP FOR SOUTH DAKOTA
NATIONAL WEATHER SERVICE SIOUX FALLS SD
400 AM CDT THU MAR 26 2015

NOTE: "FAIR" INDICATES FEW OR NO CLOUDS BELOW 12,000 FEET WITH NO
SIGNIFICANT WEATHER AND/OR OBSTRUCTIONS TO VISIBILITY.


SDZ001>005-009-010-012>017-261000-
NORTHWEST AND NORTH CENTRAL SOUTH DAKOTA

CITY           SKY/WX    TMP DP  RH WIND       PRES   REMARKS
BUFFALO          N/A     32  26  78 SE8       30.03F WCI  25
FAITH            N/A     27  20  75 S12       30.13F WCI  17
MOBRIDGE       MOCLDY    23  19  85 SE5       30.15F WCI  17
$$

SDZ012>016-024>037-041>051-057-063-072>074-261000-
SOUTHWEST AND SOUTH CENTRAL SOUTH DAKOTA

CITY           SKY/WX    TMP DP  RH WIND       PRES   REMARKS
RAPID CTY ARPT MOCLDY    30  23  75 CALM      30.13F
PIERRE         PTCLDY    22  16  78 SW7       30.20F WCI  13
CUSTER         PTCLDY    25  19  78 W6        30.11F WCI  18
ELLSWORTH AFB  CLOUDY    32  24  72 W3        30.11F
PHILIP         CLEAR     14  10  84 W5        30.18F WCI   6
PINE RIDGE     MOCLDY    19  14  81 CALM      30.15F
SPEARFISH      CLOUDY    39  28  65 CALM      30.11F
WINNER         FAIR      27  16  63 SW6       30.21F WCI  20
$$

SDZ004>011-016>023-039-040-261000-
NORTHEAST SOUTH DAKOTA

CITY           SKY/WX    TMP DP  RH WIND       PRES   REMARKS
ABERDEEN       PTCLDY    27  20  75 NW7       30.19S WCI  19
WATERTOWN      CLOUDY    33  22  63 NW12      30.14F WCI  24
SISSETON         N/A     29  25  85 N9        30.15F WCI  20
$$

SDZ017-020-022-023-036>040-048>070-261000-
SOUTHEAST SOUTH DAKOTA

CITY           SKY/WX    TMP DP  RH WIND       PRES   REMARKS
SIOUX FALLS    CLOUDY    25  19  78 W6        30.18F WCI  18
HURON          CLEAR     16  13  88 W6        30.20S WCI   7
MITCHELL       CLEAR     22  16  78 W7        30.22F WCI  13
YANKTON        CLEAR     25  18  74 W7        30.23F WCI  17
$$

ABBREVIATIONS USED IN REMARKS
   TC - TEMPERATURE IN CELSIUS
  WCI - WIND CHILL INDEX
   HX - HEAT INDEX
  VSB - VISIBILITY




USA.gov is the U.S. government's official web portal to all federal, state and local government web resources and services.